Location: Belloy
(55.7522°N, 118.2333°W)
Time: 22:54:21
(UTC+00:00)

Envisat - Pass Details

Date: 06 December 2021
Orbit: 764 x 766 km, 98.2° (Epoch: 27 January)

Event Time Altitude Azimuth Distance (km) Brightness Sun altitude
Rises 00:34:44 0° 189° (S) 3,224 6.8 -9.3°
Reaches altitude 10° 00:37:12 10° 198° (SSW) 2,302 6.2 -9.6°
Maximum altitude 00:41:53 36° 265° (W) 1,198 4.7 -10.2°
Drops below altitude 10° 00:46:35 10° 332° (NNW) 2,318 5.5 -10.8°
Sets 00:49:05 0° 341° (NNW) 3,249 6.2 -11.1°
